This demonstration page uses our WeatherBlox Daily Observations layout. Learn more.

39.92423, -83.80882

Hourly Observations for June 9, 2020

Temp ( °F °C ) Dew Point ( °F °C ) Humidity (%) Winds ( mph kmh ) Pressure ( in mb ) Visibility ( mi km ) Precip ( " mm )
12:56 am 00:56 Clear 67 19.4 53 11.7 61 61 ESE 8 13 29.96 1015 10 16.0934 0 0
1:56 am 01:56 Clear 65 18.3 54 12.2 68 68 ESE 5 7 29.94 1014 10 16.0934 0.03 0.762
2:56 am 02:56 Clear 62 16.7 55 12.8 78 78 E 6 9 29.92 1013 10 16.0934 0.81 20.574
3:56 am 03:56 Clear 62 16.7 56 13.3 80 80 E 7 11 29.9 1013 10 16.0934 0.53 13.462
4:56 am 04:56 Clear 63 17.2 56 13.3 78 78 E 6 9 29.89 1012 10 16.0934 0 0
5:56 am 05:56 Clear 63 17.2 56 13.3 78 78 E 7 11 29.88 1012 10 16.0934 0 0
6:56 am 06:56 Sunny 65 18.3 57 13.9 76 76 E 6 9 29.89 1012 10 16.0934 0 0
7:56 am 07:56 Sunny 70 21.1 58 14.4 66 66 SE 7 11 29.9 1013 10 16.0934 0 0
8:56 am 08:56 Sunny 75 23.9 60 15.6 60 60 SSE 12 19 29.89 1012 10 16.0934 0 0
9:56 am 09:56 Sunny 81 27.2 66 18.9 61 61 SSW 7 11 29.88 1012 10 16.0934 0 0
10:56 am 10:56 Sunny 85 29.4 70 21.1 61 61 SW 12 19 29.86 1011 10 16.0934 1.42 36.068
11:56 am 11:56 Sunny 87 30.6 71 21.7 59 59 S 10 17 29.84 1011 10 16.0934 0.72 18.288
12:56 pm 12:56 Mostly Sunny 89 31.7 70 21.1 53 53 SSW 14 22 29.83 1010 10 16.0934 0.21 5.334
1:56 pm 13:56 Partly Cloudy 89 31.7 70 21.1 53 53 SSW 16 26 29.82 1010 10 16.0934 0.59 14.986
2:56 pm 14:56 Mostly Cloudy 89 31.7 72 22.2 57 57 S 17 28 29.81 1010 10 16.0934 0.39 9.906
3:56 pm 15:56 Mostly Cloudy 89 31.7 71 21.7 55 55 S 14 22 29.8 1009 10 16.0934 1.45 36.83
4:56 pm 16:56 Partly Cloudy 87 30.6 71 21.7 59 59 SSW 13 20 29.78 1009 10 16.0934 1.23 31.242
5:32 pm 17:32 Cloudy with Light Thunderstorms 73 23 73 23 100 100 SW 14 22 29.77 1008 7 11.26538 0.79 20.066
5:51 pm 17:51 Mostly Cloudy 75 24 73 23 94 94 S 7 11 29.77 1008 10 16.0934 1.67 42.418
5:56 pm 17:56 Partly Cloudy 75 23.9 75 23.9 100 100 S 7 11 29.8 1009 10 16.0934 1.79 45.466
6:56 pm 18:56 Mostly Cloudy 79 26.1 76 24.4 90 90 S 6 9 29.77 1008 10 16.0934 0.13 3.302
7:56 pm 19:56 Cloudy 80 26.7 74 23.3 82 82 S 9 15 29.76 1008 10 16.0934 0.01 0.254
8:56 pm 20:56 Partly Cloudy 80 26.7 73 22.8 79 79 SSW 7 11 29.78 1009 10 16.0934 0 0
9:56 pm 21:56 Mostly Clear with Light Rain 79 26.1 72 22.2 79 79 SSW 7 11 29.78 1008 10 16.0934 0.001 0.001
10:56 pm 22:56 Clear 79 26.1 72 22.2 79 79 SSW 7 11 29.78 1009 10 16.0934 0 0
11:56 pm 23:56 Clear 78 25.6 73 22.8 85 85 SSW 8 13 29.78 1008 10 16.0934 0.03 0.762

Powered by AerisWeather